Location: Paris
(48.6709°N, 2.3750°E)
Time: 02:41:09
(UTC+02:00)

ZACube-1 - Pass Details

Date: 02 July 2022
Orbit: 581 x 661 km, 97.6° (Epoch: 17 August)

Event Time Altitude Azimuth Distance (km) Brightness Sun altitude
Rises 04:28:45 0° 30° (NNE) 2,956 ? -10.4°
Reaches altitude 10° 04:31:57 10° 55° (NE) 2,055 ? -10.1°
Maximum altitude 04:34:23 14° 88° (E) 1,784 ? -9.9°
Drops below altitude 10° 04:36:51 10° 121° (ESE) 2,065 ? -9.6°
Sets 04:40:03 0° 146° (SE) 2,979 ? -9.3°
